STARLINK-2547, 48286

Orbit data source: Space-Track

STARLINK-2547, 48286 is a payload satellite owned by SpaceX/Seattle (US) in LEO that was launched on Thu, 29 Apr 2021 UTC via an FALCON 9 launch vehicle from the Air Force Eastern Test Range (AFETR). Payload-class satellites include a variety of spacecraft equipped with specific instruments for various scientific and technological missions. These include communications satellites like Starlink; space stations such as the ISS; scientific satellites like the Hubble; Earth observation satellites from companies like Planet Labs, Umbra, and HawkEye 360; GPS; miniature CubeSats for education and research; and military/defense satellites.

Loading next visibility...
Identifier
48286, 2021-036L
Orbit
LEO
Country
Flag of USUS
Related business
Manufacturer
SpaceX/Seattle
Mission
Operational Commercial Communications
Bus & Motor
STARLINK, Unknown motor
Mass
260 kg wet, ~248 kg dry
Launch date (UTC)
2021-04-29 (5 years ago)
Launch vehicle
FALCON 9
Launch site
Air Force Eastern Test Range (AFETR)
Object type
Payload
Rocket body
Debris
Shape & HBR
Box + 1 Pan, 10.1 m
Radar Cross Section
13.562 m², Large (>1 m²)

Expand to show TLE details & history
Last TLE update: 6 hours ago

TLE from 6 hours ago
0 STARLINK-2547
1 48286U 21036L   26036.22432862  .00010341  00000-0  37005-3 0  9993
2 48286  53.1557 226.2089 0000738  91.7018 268.4067 15.29367344263434
Epoch: 2026-02-05T05:23Z
TLE epoch observation values (Epoch: 2026-02-05T05:23:01.992Z)
Latitude
-0.00003°
Longitude
10.07096°
Altitude
478.615 km
Speed
7.628 km/s
True Right ascension
15h 04m 50s
True Declination
0° 00' 00"
Sunlit
Object was in daylight at epoch
Visualization orbit readout
Latitude
Unknown
Longitude
Unknown
Altitude
Unknown
Speed
Unknown
Apparent Right ascension
Unknown
Apparent Declination
Unknown
Sunlit
N/A
Visualization observer readout
Local Sidereal Time
13:32:58
Azimuth
Unknown
Elevation
Unknown
Doppler factor
Unknown
Orbital elements
Apogee altitude
478.465 km
Perigee altitude
477.453 km
Semi-major axis
6,856.096 km
Eccentricity
0.00007
Inclination
53.1557°
RAAN
226.2089°
Arg. of periapsis
91.7018°
True anomaly
268.39825°
Mean anomaly
268.4067°
Eccentric anomaly
268.40247°
Mean motion
3.82321 °/min
Orbital period
94.16 mins
BSTAR
0.00037005
Loading maneuver chart data...
Computing Atmospheric mass density...
Loading historical data...
Loading historical data...
Loading historical data...
Loading historical data...
Loading historical data...
Loading historical data...
Loading historical data...

Documentation

Showing up to 5 results
|